Location: Carrières
(48.9495°N, 2.0407°E)
Time: 13:48:18
(UTC+00:00)

deb Kosmos-2227 - Pass Details

Date: 25 May 2025
Orbit: 823 x 992 km, 71.2° (Epoch: 09 December)

Event Time Altitude Azimuth Distance (km) Brightness Sun altitude
Rises 02:21:36 0° 155° (SSE) 3,594 ? -12.2°
Reaches altitude 10° 02:24:53 10° 138° (SE) 2,684 ? -11.9°
Maximum altitude 02:28:57 18° 96° (E) 2,167 ? -11.5°
Drops below altitude 10° 02:33:02 10° 56° (NE) 2,728 ? -11.1°
Sets 02:36:30 0° 39° (NE) 3,714 ? -10.7°
